Wind_Speed
32 31 31 29 26 24 22 22 23 23 23 23 22 22 22 21 19 17 16 16 15 14 13 13 12 11 12 12 11 11 11 12 11 10 10 10 10 11 11 11 11 11 12 13
33 33 34 33 30 26 24 23 24 24 24 25 25 25 23 23 21 19 17 17 17 16 14 15 13 13 13 13 12 12 12 12 11 10 10 11 11 11 12 12 12 12 12 13
34 33 34 35 32 29 27 25 24 24 23 25 26 26 26 25 23 22 20 18 17 17 16 16 15 14 14 14 13 13 13 13 11 11 11 12 11 12 12 12 13 13 13 14
35 34 36 33 32 31 29 27 25 23 24 25 26 27 27 26 24 23 21 19 18 18 17 16 15 14 14 15 14 14 14 13 13 12 13 13 13 13 14 14 14 14 14 15
36 36 35 34 34 34 32 30 28 27 27 27 28 28 28 27 24 24 23 22 20 19 18 17 16 16 16 15 15 15 15 15 14 14 14 14 15 15 15 15 15 15 16 16
37 36 36 35 34 35 35 34 32 30 29 30 29 29 29 28 27 25 24 23 21 20 19 19 18 18 18 18 17 17 17 17 16 16 16 16 17 17 17 16 16 17 17 18
38 37 36 36 37 37 37 37 35 32 31 31 31 31 30 29 28 27 26 24 22 21 21 21 20 20 20 20 19 18 18 18 18 18 18 18 18 18 18 18 19 19 19 19
40 39 38 36 37 38 39 37 35 34 33 34 33 33 31 30 29 28 26 25 24 24 23 22 21 21 21 21 21 20 20 20 20 20 20 20 20 20 20 20 21 21 21 22
41 40 38 37 38 39 40 39 37 35 34 34 34 34 32 30 29 28 27 26 25 25 25 24 24 23 23 23 23 23 23 22 22 22 21 21 21 22 22 22 22 22 23 24
42 40 39 38 39 39 41 41 40 39 37 37 36 35 34 32 30 29 29 29 28 27 27 27 26 26 26 25 25 25 24 24 24 23 23 23 23 24 25 25 24 25 26 26
41 40 39 38 39 40 40 41 41 41 39 38 36 36 36 35 34 33 33 32 31 30 29 28 28 28 28 28 27 26 25 25 26 26 25 25 25 26 26 27 27 27 27 28
39 38 38 39 38 38 39 40 40 40 40 39 37 37 38 37 36 36 35 34 32 31 31 30 30 30 30 29 29 28 28 28 28 27 27 27 27 28 29 30 30 30 30 30
40 39 39 39 38 37 37 38 39 39 39 39 39 39 39 39 38 38 37 35 34 33 32 32 32 31 31 31 31 30 30 30 30 30 30 30 29 29 30 31 31 32 33 33
39 39 38 37 37 37 37 36 37 38 39 39 40 40 40 40 40 39 38 37 36 35 34 34 33 32 32 32 32 31 30 30 31 31 32 32 31 32 32 33 33 34 34 34
39 39 38 38 37 37 36 36 36 37 38 38 40 40 41 41 40 40 39 38 37 36 35 35 35 34 34 34 33 32 32 32 32 33 32 33 33 34 34 35 35 35 35 34
40 38 37 37 37 36 36 36 37 37 37 38 39 40 40 40 40 40 40 40 39 37 37 36 36 35 35 35 34 34 33 32 33 33 32 33 34 34 35 35 35 34 34 34
38 37 37 37 37 36 36 35 36 37 37 38 39 39 39 40 40 40 40 40 39 38 38 37 36 36 36 35 35 34 34 34 34 33 33 34 34 34 34 34 35 35 35 35
34 34 35 36 36 35 35 35 36 37 37 37 38 39 39 39 39 38 38 38 38 38 38 37 36 35 35 34 34 34 35 35 34 35 35 35 35 35 35 36 36 35 35 34
33 34 34 34 34 35 35 35 35 36 36 36 36 36 36 35 35 36 36 36 36 36 36 35 35 35 35 35 35 35 35 35 34 34 34 35 35 35 35 36 35 34 33 33
31 32 33 33 33 33 34 34 34 34 35 35 34 34 34 33 34 34 34 34 35 34 34 34 35 36 36 36 36 36 36 35 35 34 34 34 35 35 35 35 34 33 33 33
29 30 31 31 31 31 32 32 32 32 32 32 32 31 31 31 32 32 32 32 33 33 33 34 34 35 35 35 35 35 35 35 35 35 35 35 35 35 34 34 33 33 33 32
26 27 28 28 28 28 29 29 29 29 29 29 29 30 31 31 32 31 30 30 30 31 32 32 33 33 33 33 33 33 33 33 33 34 33 33 33 33 32 32 32 32 31 30
23 24 25 25 25 25 25 26 26 27 27 27 28 28 28 29 29 28 28 28 28 28 28 28 29 30 31 31 31 31 31 31 32 32 31 31 30 30 30 30 30 29 29 29
18 20 21 22 23 23 23 23 23 24 25 25 26 26 26 26 26 25 25 26 26 26 25 25 25 26 26 26 27 28 29 29 30 30 29 29 28 28 28 28 28 28 28 28
15 15 17 18 18 19 19 20 20 21 21 22 22 22 22 22 22 22 22 22 23 23 23 23 23 24 24 25 25 26 26 26 27 27 26 26 27 27 27 27 27 27 27 26
11 11 12 13 15 15 16 16 17 17 18 18 19 18 18 19 20 20 20 21 21 21 21 22 22 22 22 22 23 23 24 24 24 24 25 25 25 25 25 26 26 26 26 26
8 9 10 11 11 12 12 13 13 14 14 14 15 15 16 16 16 16 16 17 17 18 19 20 20 21 21 21 21 22 22 22 22 22 22 23 24 25 25 26 26 25 26 26
Wind_Direction
222 218 223 230 233 233 238 244 246 245 245 250 260 269 277 282 287 291 300 306 310 308 310 314 317 319 319 319 318 318 320 320 315 311 308 310 308 299 296 297 296 295 296 295
225 222 222 228 233 235 237 241 244 244 243 245 253 262 270 277 285 287 293 300 305 309 311 311 311 313 314 316 317 316 316 318 311 309 307 306 306 302 299 295 294 296 297 299
228 226 225 226 231 235 240 241 243 243 244 244 250 259 267 274 280 285 290 294 298 302 302 305 305 306 308 310 312 314 314 314 312 307 311 309 305 307 305 301 299 298 298 299
231 229 229 229 228 230 234 239 241 243 244 245 249 256 264 271 276 282 287 289 292 295 296 298 297 299 303 306 306 307 309 308 306 306 306 309 307 305 305 305 305 301 299 301
232 232 231 229 227 228 230 233 237 242 245 247 251 257 262 268 272 278 286 287 290 292 294 296 293 294 298 299 300 302 303 305 304 303 305 306 307 307 306 304 303 303 302 302
232 233 231 226 226 228 230 233 235 240 244 249 253 257 263 268 273 276 280 284 287 290 291 291 291 294 296 295 294 295 298 300 298 300 301 304 305 306 307 308 305 302 301 302
231 232 231 228 226 227 230 235 238 241 244 248 251 256 260 266 271 275 279 282 283 285 286 286 289 291 292 294 291 291 292 294 295 296 299 301 303 304 305 305 303 301 301 301
232 233 232 230 228 228 232 236 239 242 245 248 252 256 258 262 268 273 276 278 279 281 284 285 286 287 289 291 289 289 290 292 293 294 295 297 300 303 304 303 303 302 301 301
233 234 233 230 229 230 233 234 237 241 245 248 253 255 256 261 265 268 271 273 275 278 281 282 283 285 287 288 288 289 290 291 291 292 294 296 299 300 301 300 300 301 301 302
234 235 234 232 231 231 233 236 238 241 245 250 253 256 259 260 264 267 270 272 273 276 278 280 281 282 283 285 288 288 286 288 290 292 292 294 296 298 299 299 299 300 299 299
235 237 237 236 235 235 236 238 240 243 246 250 252 254 257 259 263 267 269 271 272 273 275 277 279 280 281 282 284 285 285 285 287 289 292 293 294 297 297 297 299 299 299 298
236 238 239 239 239 239 240 241 242 245 248 248 250 253 257 260 263 266 268 271 271 271 273 274 275 277 278 280 281 281 283 285 286 288 290 292 293 294 296 298 298 299 299 298
236 238 241 242 243 244 244 244 244 246 248 249 250 253 257 260 263 266 269 270 271 272 272 273 274 275 276 279 279 280 282 284 284 285 288 290 292 294 297 298 298 298 298 298
236 238 240 242 243 245 247 247 247 249 249 249 250 254 257 260 263 266 267 268 270 271 271 272 273 275 277 279 281 282 284 285 287 287 287 288 290 292 295 296 297 297 297 297
237 239 242 244 246 247 248 248 249 249 250 252 253 254 257 259 262 264 265 267 268 270 270 271 272 274 276 278 281 283 283 284 286 288 288 287 288 290 292 294 295 296 297 297
239 242 243 245 248 250 250 250 250 250 252 253 254 255 256 259 260 262 264 266 267 268 268 269 271 273 275 277 279 281 282 283 285 286 286 287 289 291 293 294 295 295 296 296
239 242 245 247 249 250 252 253 252 253 253 254 255 257 258 259 260 261 263 264 265 266 267 268 269 271 274 275 277 278 279 281 283 283 284 286 288 290 292 293 294 294 294 294
241 243 246 247 249 250 251 252 253 253 255 256 256 257 259 260 260 260 261 262 264 265 266 267 268 269 271 274 276 277 278 279 281 282 282 284 287 289 290 292 293 294 294 293
244 245 248 249 249 249 251 253 253 254 255 257 257 258 259 260 259 260 261 262 263 264 264 265 267 268 270 271 273 275 276 278 279 281 283 285 286 288 290 291 292 292 293 294
247 247 248 250 251 251 251 252 254 255 256 256 257 258 259 259 259 260 261 262 262 261 262 265 267 268 269 270 271 272 274 276 278 281 283 285 287 288 289 290 291 292 293 294
247 248 249 250 250 251 252 253 254 254 255 256 257 257 258 259 260 261 261 262 263 263 265 266 267 269 270 270 270 271 274 276 278 281 283 284 285 286 287 288 289 291 292 293
248 249 249 250 249 249 250 252 253 253 254 255 256 256 257 259 260 261 261 263 265 266 267 268 268 269 270 270 271 273 276 277 279 281 283 284 284 286 287 288 289 290 291 292
247 247 248 248 248 248 250 250 251 252 253 254 255 256 257 259 260 260 261 262 264 265 266 267 268 269 271 272 273 274 275 277 279 281 282 284 285 287 287 288 289 290 291 292
246 245 245 245 246 246 247 248 250 251 252 254 254 255 258 259 260 260 260 260 262 264 266 268 269 269 270 272 273 275 277 279 280 281 282 283 285 286 287 288 290 291 291 291
245 244 241 239 240 244 246 245 247 250 252 252 254 256 257 258 259 259 259 259 262 264 266 268 270 271 271 272 274 277 279 280 281 282 282 284 286 286 287 288 290 290 290 289
237 238 237 237 239 241 242 243 245 248 249 250 251 254 256 258 259 260 260 258 259 262 265 268 270 271 273 274 276 279 281 282 283 284 285 286 287 288 289 289 289 288 288 289
231 230 230 230 230 231 234 238 242 246 248 249 252 255 256 257 258 257 258 260 261 263 266 269 272 276 279 281 283 284 284 283 284 287 288 288 289 289 289 289 289 290 291 292
Height
5877 5881 5883 5885 5888 5891 5892 5894 5896 5897 5898 5899 5899 5900 5901 5901 5901 5901 5901 5900 5899 5897 5896 5894 5892 5891 5890 5889 5887 5886 5884 5883 5882 5880 5879 5878 5877 5876 5875 5874 5873 5871 5870 5869
5870 5875 5877 5880 5883 5885 5887 5888 5890 5891 5893 5894 5895 5895 5896 5897 5897 5897 5897 5896 5895 5894 5892 5891 5889 5888 5887 5886 5885 5883 5882 5880 5877 5877 5876 5875 5874 5872 5871 5870 5869 5868 5867 5866
5863 5868 5871 5874 5878 5880 5881 5883 5884 5886 5889 5890 5890 5891 5892 5892 5893 5894 5893 5892 5891 5890 5889 5888 5887 5886 5884 5883 5882 5880 5879 5877 5874 5873 5873 5872 5870 5869 5868 5867 5865 5864 5863 5862
5857 5862 5864 5871 5872 5874 5875 5877 5879 5880 5882 5884 5886 5886 5887 5887 5888 5889 5888 5887 5887 5886 5885 5884 5883 5882 5881 5880 5878 5877 5875 5874 5873 5871 5870 5869 5867 5866 5864 5863 5861 5860 5859 5858
5850 5853 5858 5862 5865 5867 5869 5871 5873 5875 5877 5878 5879 5881 5882 5882 5883 5884 5884 5883 5882 5882 5881 5880 5879 5878 5877 5876 5875 5873 5872 5870 5869 5868 5867 5865 5864 5862 5861 5859 5857 5856 5855 5853
5842 5846 5849 5855 5858 5860 5863 5864 5867 5869 5871 5873 5874 5876 5877 5877 5878 5879 5879 5879 5878 5878 5877 5876 5875 5874 5873 5871 5870 5869 5868 5866 5865 5864 5863 5861 5860 5858 5856 5855 5853 5851 5850 5848
5834 5837 5841 5847 5850 5854 5857 5858 5861 5863 5865 5867 5868 5870 5871 5872 5873 5874 5874 5874 5874 5873 5872 5871 5870 5869 5868 5867 5865 5864 5863 5862 5861 5860 5858 5857 5855 5854 5852 5850 5849 5847 5845 5843
5825 5829 5836 5839 5843 5846 5848 5852 5855 5857 5859 5860 5862 5863 5864 5866 5867 5868 5868 5868 5868 5868 5867 5866 5865 5864 5863 5862 5861 5859 5858 5857 5856 5855 5853 5852 5850 5849 5847 5845 5844 5842 5840 5838
5817 5822 5827 5831 5835 5838 5841 5844 5848 5850 5852 5853 5855 5856 5857 5859 5860 5861 5861 5861 5861 5861 5860 5860 5859 5859 5857 5856 5854 5854 5853 5851 5850 5849 5848 5846 5845 5843 5841 5840 5838 5836 5834 5832
5808 5812 5817 5822 5826 5830 5833 5837 5840 5843 5845 5846 5847 5849 5850 5852 5853 5853 5854 5854 5854 5854 5854 5853 5853 5852 5851 5849 5848 5847 5846 5845 5844 5843 5841 5840 5838 5837 5835 5833 5831 5829 5827 5825
5800 5805 5809 5813 5818 5822 5826 5829 5832 5834 5836 5837 5839 5841 5843 5844 5845 5846 5846 5846 5846 5847 5846 5846 5845 5844 5844 5843 5842 5841 5839 5838 5837 5836 5835 5833 5832 5830 5828 5826 5824 5822 5820 5817
5792 5797 5801 5805 5809 5813 5817 5820 5823 5825 5827 5829 5830 5832 5834 5835 5836 5837 5838 5837 5836 5837 5837 5837 5837 5836 5836 5835 5834 5833 5832 5831 5830 5829 5828 5826 5824 5822 5820 5818 5816 5814 5811 5809
5784 5788 5792 5796 5800 5804 5808 5811 5813 5816 5818 5820 5822 5823 5823 5825 5827 5828 5828 5828 5828 5828 5829 5828 5828 5828 5827 5827 5826 5825 5824 5823 5822 5821 5820 5818 5816 5814 5812 5810 5808 5805 5803 5800
5775 5780 5783 5787 5791 5794 5798 5800 5803 5806 5807 5809 5812 5813 5814 5816 5817 5818 5818 5819 5819 5819 5819 5819 5819 5819 5819 5818 5817 5817 5816 5815 5813 5812 5811 5809 5808 5806 5804 5801 5799 5796 5794 5791
5767 5770 5774 5778 5781 5784 5787 5790 5793 5795 5797 5799 5801 5803 5805 5806 5807 5807 5808 5809 5809 5810 5810 5810 5810 5810 5809 5809 5808 5808 5807 5806 5805 5803 5802 5800 5798 5796 5794 5792 5790 5787 5784 5782
5758 5762 5765 5769 5772 5775 5777 5780 5782 5784 5786 5788 5790 5792 5794 5795 5796 5796 5797 5798 5799 5799 5800 5800 5800 5800 5800 5799 5799 5798 5798 5797 5796 5794 5793 5791 5789 5787 5785 5783 5780 5778 5775 5772
5750 5753 5756 5759 5762 5765 5767 5769 5771 5773 5775 5777 5779 5781 5783 5784 5785 5786 5786 5787 5788 5789 5789 5790 5790 5789 5789 5789 5789 5789 5788 5787 5786 5785 5783 5782 5780 5778 5776 5773 5771 5768 5766 5763
5741 5744 5747 5750 5753 5755 5757 5759 5761 5763 5764 5766 5768 5770 5771 5772 5773 5774 5775 5775 5776 5778 5779 5779 5779 5779 5779 5779 5779 5779 5778 5777 5776 5775 5773 5772 5770 5768 5766 5764 5761 5758 5755 5753
5732 5735 5738 5740 5743 5745 5747 5749 5751 5752 5754 5756 5757 5758 5759 5760 5761 5762 5763 5764 5765 5767 5767 5768 5768 5769 5769 5769 5769 5769 5768 5767 5766 5765 5763 5762 5760 5758 5756 5754 5751 5749 5746 5743
5724 5726 5729 5731 5733 5735 5737 5739 5741 5742 5744 5746 5747 5748 5749 5750 5751 5752 5753 5754 5754 5755 5756 5757 5758 5758 5759 5759 5759 5758 5757 5756 5756 5754 5753 5752 5750 5748 5746 5744 5741 5739 5736 5733
5716 5718 5720 5722 5724 5726 5728 5730 5731 5733 5734 5736 5738 5739 5740 5741 5741 5742 5743 5744 5745 5746 5746 5747 5748 5748 5748 5748 5748 5747 5747 5746 5745 5744 5743 5742 5740 5738 5736 5733 5731 5729 5726 5724
5708 5709 5711 5713 5715 5717 5719 5721 5723 5724 5726 5727 5729 5730 5731 5732 5733 5734 5734 5735 5736 5736 5737 5737 5738 5738 5738 5738 5738 5737 5737 5736 5735 5734 5733 5731 5730 5728 5725 5723 5721 5719 5717 5714
5700 5701 5703 5705 5707 5709 5711 5713 5715 5716 5718 5719 5721 5722 5723 5724 5724 5725 5726 5727 5727 5728 5728 5728 5728 5728 5728 5728 5728 5728 5727 5727 5726 5725 5723 5721 5720 5718 5716 5714 5712 5710 5708 5705
5694 5695 5697 5698 5700 5702 5704 5706 5707 5709 5710 5711 5712 5714 5715 5716 5717 5717 5718 5719 5719 5720 5720 5720 5720 5720 5720 5720 5719 5719 5718 5718 5716 5715 5714 5712 5711 5709 5707 5705 5703 5701 5699 5697
5688 5690 5691 5693 5695 5697 5698 5700 5701 5702 5704 5705 5706 5707 5708 5709 5710 5710 5711 5712 5712 5713 5713 5713 5713 5713 5712 5712 5711 5711 5710 5709 5708 5706 5705 5704 5702 5700 5699 5697 5695 5693 5690 5688
5685 5686 5687 5689 5690 5692 5693 5695 5696 5697 5698 5699 5700 5701 5702 5703 5703 5704 5705 5705 5706 5706 5706 5706 5706 5705 5705 5704 5703 5702 5702 5701 5700 5698 5697 5696 5694 5692 5690 5688 5686 5684 5682 5680
5682 5683 5684 5685 5687 5688 5689 5691 5692 5693 5693 5694 5695 5696 5696 5697 5698 5698 5699 5699 5700 5700 5700 5700 5700 5699 5698 5697 5696 5696 5694 5693 5692 5691 5689 5688 5686 5684 5682 5680 5678 5676 5674 5671